Time,TemperatureF,DewpointF,PressureIn,WindDirection,WindDirectionDegrees,WindSpeedMPH,WindSpeedGustMPH,Humidity,HourlyPrecipIn,Conditions,Clouds,dailyrainin,SoftwareType,DateUTC
2013-03-21 00:01:00,14.9,-5.6,29.91,North,0,0.0,0.0,39,0.00,,,-99.99,VWS V12.07,2013-03-21 05:01:00,
2013-03-21 00:11:00,14.9,-5.1,29.91,North,0,0.0,0.0,40,0.00,,,-99.99,VWS V12.07,2013-03-21 05:11:00,
2013-03-21 00:16:00,14.9,-5.1,29.91,North,0,0.0,0.0,40,0.00,,,-99.99,VWS V12.07,2013-03-21 05:16:00,
2013-03-21 00:21:00,14.9,-5.1,29.91,North,0,0.0,0.0,40,0.00,,,-99.99,VWS V12.07,2013-03-21 05:21:00,
2013-03-21 00:26:00,14.7,-5.2,29.91,North,0,0.0,0.0,40,0.00,,,-99.99,VWS V12.07,2013-03-21 05:26:00,
2013-03-21 00:36:00,14.7,-5.2,29.91,North,0,0.0,0.0,40,0.00,,,-99.99,VWS V12.07,2013-03-21 05:36:00,
2013-03-21 00:46:00,14.7,-5.2,29.91,North,0,0.0,0.0,40,0.00,,,-99.99,VWS V12.07,2013-03-21 05:46:00,
2013-03-21 00:56:00,14.5,-5.4,29.91,North,0,0.0,0.0,40,0.00,,,-99.99,VWS V12.07,2013-03-21 05:56:00,
2013-03-21 01:06:00,14.4,-5.5,29.91,North,0,0.0,0.0,40,0.00,,,-99.99,VWS V12.07,2013-03-21 06:06:00,
2013-03-21 01:11:00,14.4,-5.0,29.91,North,0,0.0,0.0,41,0.00,,,-99.99,VWS V12.07,2013-03-21 06:11:00,
2013-03-21 01:16:00,14.4,-5.0,29.91,North,0,0.0,0.0,41,0.00,,,-99.99,VWS V12.07,2013-03-21 06:16:00,
2013-03-21 01:26:00,14.2,-5.2,29.91,North,0,0.0,0.0,41,0.00,,,-99.99,VWS V12.07,2013-03-21 06:26:00,
2013-03-21 01:31:00,14.2,-5.2,29.91,North,0,0.0,0.0,41,0.00,,,-99.99,VWS V12.07,2013-03-21 06:31:00,
2013-03-21 01:36:00,14.2,-5.2,29.91,North,0,0.0,0.0,41,0.00,,,-99.99,VWS V12.07,2013-03-21 06:36:00,
2013-03-21 01:46:00,14.2,-5.2,29.91,North,0,0.0,0.0,41,0.00,,,-99.99,VWS V12.07,2013-03-21 06:46:00,
2013-03-21 01:51:00,14.2,-5.2,29.91,North,0,0.0,0.0,41,0.00,,,-99.99,VWS V12.07,2013-03-21 06:51:00,
2013-03-21 02:01:00,13.8,-5.0,29.91,North,0,0.0,0.0,42,0.00,,,-99.99,VWS V12.07,2013-03-21 07:01:00,
2013-03-21 02:16:00,13.8,-5.0,29.91,North,0,0.0,0.0,42,0.00,,,-99.99,VWS V12.07,2013-03-21 07:16:00,
2013-03-21 02:26:00,13.8,-5.0,29.91,North,0,0.0,0.0,42,0.00,,,-99.99,VWS V12.07,2013-03-21 07:26:00,
2013-03-21 02:36:00,13.8,-5.0,29.91,North,0,0.0,0.0,42,0.00,,,-99.99,VWS V12.07,2013-03-21 07:36:00,
2013-03-21 02:46:00,13.8,-5.0,29.91,North,0,0.0,0.0,42,0.00,,,-99.99,VWS V12.07,2013-03-21 07:46:00,
2013-03-21 02:56:00,13.6,-5.2,29.91,North,0,0.0,0.0,42,0.00,,,-99.99,VWS V12.07,2013-03-21 07:56:00,
2013-03-21 03:06:00,13.6,-5.2,29.91,North,0,0.0,0.0,42,0.00,,,-99.99,VWS V12.07,2013-03-21 08:06:00,
2013-03-21 03:11:00,13.6,-5.2,29.91,North,0,0.0,0.0,42,0.00,,,-99.99,VWS V12.07,2013-03-21 08:11:00,
2013-03-21 03:21:00,13.8,-5.0,29.88,North,0,0.0,0.0,42,0.00,,,-99.99,VWS V12.07,2013-03-21 08:21:00,
2013-03-21 03:26:00,13.6,-5.2,29.88,North,0,0.0,0.0,42,0.00,,,-99.99,VWS V12.07,2013-03-21 08:26:00,
2013-03-21 03:31:00,13.6,-5.2,29.88,North,0,0.0,0.0,42,0.00,,,-99.99,VWS V12.07,2013-03-21 08:31:00,
2013-03-21 03:41:00,13.5,-5.3,29.88,North,0,0.0,0.0,42,0.00,,,-99.99,VWS V12.07,2013-03-21 08:41:00,
2013-03-21 03:46:00,13.6,-5.2,29.88,North,0,0.0,0.0,42,0.00,,,-99.99,VWS V12.07,2013-03-21 08:46:00,
2013-03-21 03:51:00,13.6,-5.2,29.88,North,0,0.0,0.0,42,0.00,,,-99.99,VWS V12.07,2013-03-21 08:51:00,
2013-03-21 03:56:00,13.5,-5.3,29.88,North,0,0.0,0.0,42,0.00,,,-99.99,VWS V12.07,2013-03-21 08:56:00,
2013-03-21 04:06:00,13.6,-5.2,29.88,North,0,0.0,0.0,42,0.00,,,-99.99,VWS V12.07,2013-03-21 09:06:00,
2013-03-21 04:16:00,13.8,-5.0,29.88,North,0,0.0,0.0,42,0.00,,,-99.99,VWS V12.07,2013-03-21 09:16:00,
2013-03-21 04:21:00,13.6,-5.2,29.88,North,0,0.0,0.0,42,0.00,,,-99.99,VWS V12.07,2013-03-21 09:21:00,
2013-03-21 04:26:00,13.6,-5.2,29.88,North,0,0.0,0.0,42,0.00,,,-99.99,VWS V12.07,2013-03-21 09:26:00,
2013-03-21 04:31:00,13.6,-5.2,29.88,North,0,0.0,0.0,42,0.00,,,-99.99,VWS V12.07,2013-03-21 09:31:00,
2013-03-21 04:36:00,13.6,-5.2,29.88,North,0,0.0,0.0,42,0.00,,,-99.99,VWS V12.07,2013-03-21 09:36:00,
2013-03-21 04:41:00,13.6,-5.2,29.88,North,0,0.0,0.0,42,0.00,,,-99.99,VWS V12.07,2013-03-21 09:41:00,
2013-03-21 04:46:00,13.5,-5.3,29.88,North,0,0.0,0.0,42,0.00,,,-99.99,VWS V12.07,2013-03-21 09:46:00,
2013-03-21 04:51:00,13.5,-5.3,29.88,North,0,0.0,0.0,42,0.00,,,-99.99,VWS V12.07,2013-03-21 09:51:00,
2013-03-21 04:56:00,13.3,-5.5,29.88,North,0,0.0,0.0,42,0.00,,,-99.99,VWS V12.07,2013-03-21 09:56:00,
2013-03-21 05:01:00,13.3,-5.5,29.88,North,0,0.0,0.0,42,0.00,,,-99.99,VWS V12.07,2013-03-21 10:01:00,
2013-03-21 05:06:00,13.3,-5.5,29.88,North,0,0.0,0.0,42,0.00,,,-99.99,VWS V12.07,2013-03-21 10:06:00,
2013-03-21 05:11:00,13.5,-5.3,29.88,North,0,0.0,0.0,42,0.00,,,-99.99,VWS V12.07,2013-03-21 10:11:00,
2013-03-21 05:16:00,13.5,-5.3,29.88,North,0,0.0,0.0,42,0.00,,,-99.99,VWS V12.07,2013-03-21 10:16:00,
2013-03-21 05:21:00,13.3,-5.5,29.88,North,0,0.0,0.0,42,0.00,,,-99.99,VWS V12.07,2013-03-21 10:21:00,
2013-03-21 05:26:00,13.5,-5.3,29.88,North,0,0.0,0.0,42,0.00,,,-99.99,VWS V12.07,2013-03-21 10:26:00,
2013-03-21 05:31:00,13.5,-5.3,29.88,North,0,0.0,0.0,42,0.00,,,-99.99,VWS V12.07,2013-03-21 10:31:00,
2013-03-21 05:36:00,13.5,-5.3,29.88,North,0,0.0,0.0,42,0.00,,,-99.99,VWS V12.07,2013-03-21 10:36:00,
2013-03-21 05:46:00,13.5,-5.3,29.88,North,0,0.0,0.0,42,0.00,,,-99.99,VWS V12.07,2013-03-21 10:46:00,
2013-03-21 05:51:00,13.6,-5.2,29.88,North,0,0.0,0.0,42,0.00,,,-99.99,VWS V12.07,2013-03-21 10:51:00,
2013-03-21 06:01:00,13.5,-5.3,29.88,North,0,0.0,0.0,42,0.00,,,-99.99,VWS V12.07,2013-03-21 11:01:00,
2013-03-21 06:11:00,13.3,-5.5,29.88,North,0,0.0,0.0,42,0.00,,,-99.99,VWS V12.07,2013-03-21 11:11:00,
2013-03-21 06:21:00,13.3,-5.5,29.88,North,0,0.0,0.0,42,0.00,,,-99.99,VWS V12.07,2013-03-21 11:21:00,
2013-03-21 06:26:00,13.3,-5.5,29.88,North,0,0.0,0.0,42,0.00,,,-99.99,VWS V12.07,2013-03-21 11:26:00,
2013-03-21 06:36:00,13.3,-5.5,29.91,North,0,0.0,0.0,42,0.00,,,-99.99,VWS V12.07,2013-03-21 11:36:00,
2013-03-21 06:46:00,12.9,-5.8,29.91,North,0,0.0,0.0,42,0.00,,,-99.99,VWS V12.07,2013-03-21 11:46:00,
2013-03-21 06:51:00,12.9,-5.8,29.91,North,0,0.0,0.0,42,0.00,,,-99.99,VWS V12.07,2013-03-21 11:51:00,
2013-03-21 07:01:00,12.7,-6.0,29.91,North,0,0.0,0.0,42,0.00,,,-99.99,VWS V12.07,2013-03-21 12:01:00,
2013-03-21 07:11:00,12.6,-6.2,29.91,North,0,0.0,0.0,42,0.00,,,-99.99,VWS V12.07,2013-03-21 12:11:00,
2013-03-21 07:16:00,12.7,-6.0,29.91,North,0,0.0,0.0,42,0.00,,,-99.99,VWS V12.07,2013-03-21 12:16:00,
2013-03-21 07:26:00,12.9,-5.8,29.91,North,0,0.0,0.0,42,0.00,,,-99.99,VWS V12.07,2013-03-21 12:26:00,
2013-03-21 07:36:00,13.1,-5.7,29.88,North,0,0.0,0.0,42,0.00,,,-99.99,VWS V12.07,2013-03-21 12:36:00,
2013-03-21 07:46:00,13.6,-5.2,29.88,North,0,0.0,0.0,42,0.00,,,-99.99,VWS V12.07,2013-03-21 12:46:00,
2013-03-21 07:56:00,14.4,-3.1,29.88,North,0,0.0,0.0,45,0.00,,,-99.99,VWS V12.07,2013-03-21 12:56:00,
2013-03-21 08:06:00,14.4,-3.1,29.88,North,0,0.0,0.0,45,0.00,,,-99.99,VWS V12.07,2013-03-21 13:06:00,
2013-03-21 08:11:00,14.7,-2.8,29.88,North,0,0.0,0.0,45,0.00,,,-99.99,VWS V12.07,2013-03-21 13:11:00,
2013-03-21 08:16:00,15.1,-2.4,29.88,North,0,0.0,0.0,45,0.00,,,-99.99,VWS V12.07,2013-03-21 13:16:00,
2013-03-21 08:21:00,15.4,-2.1,29.88,North,0,0.0,0.0,45,0.00,,,-99.99,VWS V12.07,2013-03-21 13:21:00,
2013-03-21 08:26:00,15.8,-1.8,29.88,North,0,0.0,0.0,45,0.00,,,-99.99,VWS V12.07,2013-03-21 13:26:00,
2013-03-21 08:36:00,16.2,-1.9,29.88,North,0,0.0,0.0,44,0.00,,,-99.99,VWS V12.07,2013-03-21 13:36:00,
2013-03-21 08:41:00,16.9,-1.2,29.88,North,0,0.0,0.0,44,0.00,,,-99.99,VWS V12.07,2013-03-21 13:41:00,
2013-03-21 08:46:00,17.6,-0.1,29.88,North,0,0.0,0.0,45,0.00,,,-99.99,VWS V12.07,2013-03-21 13:46:00,
2013-03-21 08:51:00,17.8,-0.4,29.88,North,0,0.0,0.0,44,0.00,,,-99.99,VWS V12.07,2013-03-21 13:51:00,
2013-03-21 08:56:00,18.1,-0.1,29.88,North,0,0.0,0.0,44,0.00,,,-99.99,VWS V12.07,2013-03-21 13:56:00,
2013-03-21 09:01:00,18.5,0.2,29.88,North,0,0.0,0.0,44,0.00,,,-99.99,VWS V12.07,2013-03-21 14:01:00,
2013-03-21 09:16:00,19.4,0.6,29.88,North,0,0.0,0.0,43,0.00,,,-99.99,VWS V12.07,2013-03-21 14:16:00,
2013-03-21 09:21:00,19.6,0.7,29.91,North,0,0.0,0.0,43,0.00,,,-99.99,VWS V12.07,2013-03-21 14:21:00,
2013-03-21 09:26:00,19.6,0.7,29.91,North,0,0.0,0.0,43,0.00,,,-99.99,VWS V12.07,2013-03-21 14:26:00,
2013-03-21 09:36:00,19.4,0.6,29.91,North,0,0.0,0.0,43,0.00,,,-99.99,VWS V12.07,2013-03-21 14:36:00,
2013-03-21 09:46:00,19.6,0.7,29.91,North,0,0.0,0.0,43,0.00,,,-99.99,VWS V12.07,2013-03-21 14:46:00,
2013-03-21 09:56:00,20.1,1.2,29.91,North,0,0.0,0.0,43,0.00,,,-99.99,VWS V12.07,2013-03-21 14:56:00,
2013-03-21 10:01:00,20.3,1.4,29.91,North,0,0.0,0.0,43,0.00,,,-99.99,VWS V12.07,2013-03-21 15:01:00,
2013-03-21 10:06:00,20.5,1.5,29.91,North,0,0.0,0.0,43,0.00,,,-99.99,VWS V12.07,2013-03-21 15:06:00,
2013-03-21 10:16:00,20.8,1.9,29.91,North,0,0.0,0.0,43,0.00,,,-99.99,VWS V12.07,2013-03-21 15:16:00,
2013-03-21 10:26:00,21.2,2.2,29.91,North,0,0.0,0.0,43,0.00,,,-99.99,VWS V12.07,2013-03-21 15:26:00,
2013-03-21 10:31:00,21.2,2.2,29.91,North,0,0.0,0.0,43,0.00,,,-99.99,VWS V12.07,2013-03-21 15:31:00,
2013-03-21 10:36:00,21.2,2.2,29.91,North,0,0.0,0.0,43,0.00,,,-99.99,VWS V12.07,2013-03-21 15:36:00,
2013-03-21 10:41:00,21.7,2.2,29.91,North,0,0.0,0.0,42,0.00,,,-99.99,VWS V12.07,2013-03-21 15:41:00,
2013-03-21 10:46:00,21.9,2.4,29.91,North,0,0.0,0.0,42,0.00,,,-99.99,VWS V12.07,2013-03-21 15:46:00,
2013-03-21 10:51:00,22.5,2.8,29.91,North,0,0.0,0.0,42,0.00,,,-99.99,VWS V12.07,2013-03-21 15:51:00,
2013-03-21 11:01:00,23.0,3.3,29.91,North,0,0.0,0.0,42,0.00,,,-99.99,VWS V12.07,2013-03-21 16:01:00,
2013-03-21 11:11:00,23.4,3.7,29.91,North,0,0.0,0.0,42,0.00,,,-99.99,VWS V12.07,2013-03-21 16:11:00,
2013-03-21 11:21:00,23.9,4.2,29.91,North,0,0.0,0.0,42,0.00,,,-99.99,VWS V12.07,2013-03-21 16:21:00,
2013-03-21 11:26:00,23.9,4.2,29.91,North,0,0.0,0.0,42,0.00,,,-99.99,VWS V12.07,2013-03-21 16:26:00,
2013-03-21 11:36:00,24.4,4.7,29.91,North,0,0.0,0.0,42,0.00,,,-99.99,VWS V12.07,2013-03-21 16:36:00,
2013-03-21 11:46:00,24.8,5.0,29.91,North,0,0.0,0.0,42,0.00,,,-99.99,VWS V12.07,2013-03-21 16:46:00,
2013-03-21 11:56:00,25.9,5.4,29.91,North,0,0.0,0.0,41,0.00,,,-99.99,VWS V12.07,2013-03-21 16:56:00,
2013-03-21 12:01:00,26.1,5.6,29.91,North,0,0.0,0.0,41,0.00,,,-99.99,VWS V12.07,2013-03-21 17:01:00,
2013-03-21 12:06:00,26.1,5.6,29.91,North,0,0.0,0.0,41,0.00,,,-99.99,VWS V12.07,2013-03-21 17:06:00,
2013-03-21 12:11:00,26.1,5.6,29.91,North,0,0.0,0.0,41,0.00,,,-99.99,VWS V12.07,2013-03-21 17:11:00,
2013-03-21 12:16:00,25.9,5.4,29.91,North,0,0.0,0.0,41,0.00,,,-99.99,VWS V12.07,2013-03-21 17:16:00,
2013-03-21 12:26:00,25.7,5.3,29.91,North,0,0.0,0.0,41,0.00,,,-99.99,VWS V12.07,2013-03-21 17:26:00,
2013-03-21 12:31:00,25.7,5.3,29.91,North,0,0.0,0.0,41,0.00,,,-99.99,VWS V12.07,2013-03-21 17:31:00,
2013-03-21 12:36:00,25.9,5.4,29.91,North,0,0.0,0.0,41,0.00,,,-99.99,VWS V12.07,2013-03-21 17:36:00,
2013-03-21 12:41:00,26.4,5.9,29.91,North,0,0.0,0.0,41,0.00,,,-99.99,VWS V12.07,2013-03-21 17:41:00,
2013-03-21 12:51:00,26.8,6.2,29.91,North,0,0.0,0.0,41,0.00,,,-99.99,VWS V12.07,2013-03-21 17:51:00,
2013-03-21 12:56:00,26.6,6.1,29.91,North,0,0.0,0.0,41,0.00,,,-99.99,VWS V12.07,2013-03-21 17:56:00,
2013-03-21 13:01:00,27.0,6.4,29.91,North,0,0.0,0.0,41,0.00,,,-99.99,VWS V12.07,2013-03-21 18:01:00,
2013-03-21 13:11:00,27.1,6.0,29.91,North,0,0.0,0.0,40,0.00,,,-99.99,VWS V12.07,2013-03-21 18:11:00,
2013-03-21 13:21:00,27.3,5.6,29.91,North,0,0.0,0.0,39,0.00,,,-99.99,VWS V12.07,2013-03-21 18:21:00,
2013-03-21 13:31:00,27.5,5.8,29.91,North,0,0.0,0.0,39,0.00,,,-99.99,VWS V12.07,2013-03-21 18:31:00,
2013-03-21 13:41:00,27.5,5.8,29.91,North,0,0.0,0.0,39,0.00,,,-99.99,VWS V12.07,2013-03-21 18:41:00,
2013-03-21 13:51:00,27.7,6.0,29.91,North,0,0.0,0.0,39,0.00,,,-99.99,VWS V12.07,2013-03-21 18:51:00,
2013-03-21 14:01:00,28.0,5.7,29.91,North,0,0.0,0.0,38,0.00,,,-99.99,VWS V12.07,2013-03-21 19:01:00,
2013-03-21 14:06:00,28.0,5.7,29.91,North,0,0.0,0.0,38,0.00,,,-99.99,VWS V12.07,2013-03-21 19:06:00,
2013-03-21 14:16:00,28.6,6.2,29.91,North,0,0.0,0.0,38,0.00,,,-99.99,VWS V12.07,2013-03-21 19:16:00,
2013-03-21 14:21:00,28.6,6.2,29.91,North,0,0.0,0.0,38,0.00,,,-99.99,VWS V12.07,2013-03-21 19:21:00,
2013-03-21 14:31:00,28.6,5.6,29.91,North,0,0.0,0.0,37,0.00,,,-99.99,VWS V12.07,2013-03-21 19:31:00,
2013-03-21 14:36:00,28.6,5.6,29.91,North,0,0.0,0.0,37,0.00,,,-99.99,VWS V12.07,2013-03-21 19:36:00,
2013-03-21 14:46:00,28.8,6.4,29.91,North,0,0.0,0.0,38,0.00,,,-99.99,VWS V12.07,2013-03-21 19:46:00,
2013-03-21 15:01:00,29.5,6.4,29.91,North,0,0.0,0.0,37,0.00,,,-99.99,VWS V12.07,2013-03-21 20:01:00,
2013-03-21 15:06:00,29.7,6.6,29.91,North,0,0.0,0.0,37,0.00,,,-99.99,VWS V12.07,2013-03-21 20:06:00,
2013-03-21 15:16:00,29.8,6.8,29.91,North,0,0.0,0.0,37,0.00,,,-99.99,VWS V12.07,2013-03-21 20:16:00,
2013-03-21 15:21:00,29.7,6.6,29.88,North,0,0.0,0.0,37,0.00,,,-99.99,VWS V12.07,2013-03-21 20:21:00,
2013-03-21 15:26:00,29.5,6.4,29.88,North,0,0.0,0.0,37,0.00,,,-99.99,VWS V12.07,2013-03-21 20:26:00,
2013-03-21 15:36:00,29.8,6.8,29.88,North,0,0.0,0.0,37,0.00,,,-99.99,VWS V12.07,2013-03-21 20:36:00,
2013-03-21 15:46:00,30.0,6.9,29.88,North,0,0.0,0.0,37,0.00,,,-99.99,VWS V12.07,2013-03-21 20:46:00,
2013-03-21 15:51:00,30.2,7.1,29.88,North,0,0.0,0.0,37,0.00,,,-99.99,VWS V12.07,2013-03-21 20:51:00,
2013-03-21 15:56:00,30.2,6.5,29.88,North,0,0.0,0.0,36,0.00,,,-99.99,VWS V12.07,2013-03-21 20:56:00,
2013-03-21 16:01:00,30.2,6.5,29.88,North,0,0.0,0.0,36,0.00,,,-99.99,VWS V12.07,2013-03-21 21:01:00,
2013-03-21 16:11:00,30.2,6.5,29.88,North,0,0.0,0.0,36,0.00,,,-99.99,VWS V12.07,2013-03-21 21:11:00,
2013-03-21 16:16:00,30.4,6.6,29.88,North,0,0.0,0.0,36,0.00,,,-99.99,VWS V12.07,2013-03-21 21:16:00,
2013-03-21 16:26:00,30.2,6.5,29.88,North,0,0.0,0.0,36,0.00,,,-99.99,VWS V12.07,2013-03-21 21:26:00,
2013-03-21 16:36:00,30.4,6.6,29.88,North,0,0.0,0.0,36,0.00,,,-99.99,VWS V12.07,2013-03-21 21:36:00,
2013-03-21 16:46:00,30.4,6.0,29.88,North,0,0.0,0.0,35,0.00,,,-99.99,VWS V12.07,2013-03-21 21:46:00,
2013-03-21 16:56:00,30.4,6.0,29.88,North,0,0.0,0.0,35,0.00,,,-99.99,VWS V12.07,2013-03-21 21:56:00,
2013-03-21 17:06:00,30.4,6.0,29.88,North,0,0.0,0.0,35,0.00,,,-99.99,VWS V12.07,2013-03-21 22:06:00,
2013-03-21 17:11:00,30.6,6.2,29.88,North,0,0.0,0.0,35,0.00,,,-99.99,VWS V12.07,2013-03-21 22:11:00,
2013-03-21 17:16:00,30.6,6.2,29.88,North,0,0.0,0.0,35,0.00,,,-99.99,VWS V12.07,2013-03-21 22:16:00,
2013-03-21 17:21:00,30.6,6.2,29.88,North,0,0.0,0.0,35,0.00,,,-99.99,VWS V12.07,2013-03-21 22:21:00,
2013-03-21 17:26:00,30.2,5.9,29.88,North,0,0.0,0.0,35,0.00,,,-99.99,VWS V12.07,2013-03-21 22:26:00,
2013-03-21 17:36:00,29.7,5.4,29.88,North,0,0.0,0.0,35,0.00,,,-99.99,VWS V12.07,2013-03-21 22:36:00,
2013-03-21 17:41:00,29.5,5.2,29.88,North,0,0.0,0.0,35,0.00,,,-99.99,VWS V12.07,2013-03-21 22:41:00,
2013-03-21 17:46:00,29.1,4.9,29.88,North,0,0.0,0.0,35,0.00,,,-99.99,VWS V12.07,2013-03-21 22:46:00,
2013-03-21 17:51:00,29.3,5.1,29.88,North,0,0.0,0.0,35,0.00,,,-99.99,VWS V12.07,2013-03-21 22:51:00,
2013-03-21 18:01:00,29.5,5.2,29.88,North,0,0.0,0.0,35,0.00,,,-99.99,VWS V12.07,2013-03-21 23:01:00,
2013-03-21 18:11:00,28.9,4.7,29.88,North,0,0.0,0.0,35,0.00,,,-99.99,VWS V12.07,2013-03-21 23:11:00,
2013-03-21 18:21:00,28.6,4.4,29.88,North,0,0.0,0.0,35,0.00,,,-99.99,VWS V12.07,2013-03-21 23:21:00,
2013-03-21 18:26:00,28.4,4.2,29.88,North,0,0.0,0.0,35,0.00,,,-99.99,VWS V12.07,2013-03-21 23:26:00,
2013-03-21 18:31:00,28.2,4.7,29.88,North,0,0.0,0.0,36,0.00,,,-99.99,VWS V12.07,2013-03-21 23:31:00,
2013-03-21 18:41:00,27.9,4.4,29.88,North,0,0.0,0.0,36,0.00,,,-99.99,VWS V12.07,2013-03-21 23:41:00,
2013-03-21 18:46:00,27.7,4.2,29.88,North,0,0.0,0.0,36,0.00,,,-99.99,VWS V12.07,2013-03-21 23:46:00,
2013-03-21 18:56:00,27.3,3.9,29.88,North,0,0.0,0.0,36,0.00,,,-99.99,VWS V12.07,2013-03-21 23:56:00,
2013-03-21 19:01:00,27.3,3.9,29.88,North,0,0.0,0.0,36,0.00,,,-99.99,VWS V12.07,2013-03-22 00:01:00,
2013-03-21 19:16:00,27.0,3.6,29.88,North,0,0.0,0.0,36,0.00,,,-99.99,VWS V12.07,2013-03-22 00:16:00,
2013-03-21 19:26:00,27.0,3.6,29.88,North,0,0.0,0.0,36,0.00,,,-99.99,VWS V12.07,2013-03-22 00:26:00,
2013-03-21 19:31:00,27.0,3.6,29.88,North,0,0.0,0.0,36,0.00,,,-99.99,VWS V12.07,2013-03-22 00:31:00,
2013-03-21 19:41:00,27.0,3.6,29.88,North,0,0.0,0.0,36,0.00,,,-99.99,VWS V12.07,2013-03-22 00:41:00,
2013-03-21 19:46:00,27.0,3.6,29.88,North,0,0.0,0.0,36,0.00,,,-99.99,VWS V12.07,2013-03-22 00:46:00,
2013-03-21 20:01:00,27.0,3.6,29.88,North,0,0.0,0.0,36,0.00,,,-99.99,VWS V12.07,2013-03-22 01:01:00,
2013-03-21 20:06:00,27.0,3.6,29.88,North,0,0.0,0.0,36,0.00,,,-99.99,VWS V12.07,2013-03-22 01:06:00,
2013-03-21 20:11:00,26.8,3.4,29.88,North,0,0.0,0.0,36,0.00,,,-99.99,VWS V12.07,2013-03-22 01:11:00,
2013-03-21 20:21:00,26.6,3.8,29.91,North,0,0.0,0.0,37,0.00,,,-99.99,VWS V12.07,2013-03-22 01:21:00,
2013-03-21 20:26:00,26.4,3.7,29.91,North,0,0.0,0.0,37,0.00,,,-99.99,VWS V12.07,2013-03-22 01:26:00,
2013-03-21 20:36:00,26.1,3.4,29.91,North,0,0.0,0.0,37,0.00,,,-99.99,VWS V12.07,2013-03-22 01:36:00,
2013-03-21 20:46:00,26.1,3.4,29.91,North,0,0.0,0.0,37,0.00,,,-99.99,VWS V12.07,2013-03-22 01:46:00,
2013-03-21 20:51:00,25.9,3.2,29.91,North,0,0.0,0.0,37,0.00,,,-99.99,VWS V12.07,2013-03-22 01:51:00,
2013-03-21 20:56:00,25.9,3.8,29.91,North,0,0.0,0.0,38,0.00,,,-99.99,VWS V12.07,2013-03-22 01:56:00,
2013-03-21 21:01:00,25.9,3.8,29.91,North,0,0.0,0.0,38,0.00,,,-99.99,VWS V12.07,2013-03-22 02:01:00,
2013-03-21 21:11:00,25.2,3.1,29.91,North,0,0.0,0.0,38,0.00,,,-99.99,VWS V12.07,2013-03-22 02:11:00,
2013-03-21 21:21:00,25.0,3.0,29.91,North,0,0.0,0.0,38,0.00,,,-99.99,VWS V12.07,2013-03-22 02:21:00,
2013-03-21 21:31:00,25.0,3.0,29.91,North,0,0.0,0.0,38,0.00,,,-99.99,VWS V12.07,2013-03-22 02:31:00,
2013-03-21 21:36:00,24.8,3.4,29.91,North,0,0.0,0.0,39,0.00,,,-99.99,VWS V12.07,2013-03-22 02:36:00,
2013-03-21 21:41:00,24.6,3.2,29.91,North,0,0.0,0.0,39,0.00,,,-99.99,VWS V12.07,2013-03-22 02:41:00,
2013-03-21 21:51:00,24.3,2.9,29.91,North,0,0.0,0.0,39,0.00,,,-99.99,VWS V12.07,2013-03-22 02:51:00,
2013-03-21 21:56:00,23.9,2.6,29.91,North,0,0.0,0.0,39,0.00,,,-99.99,VWS V12.07,2013-03-22 02:56:00,
2013-03-21 22:06:00,23.9,2.6,29.91,North,0,0.0,0.0,39,0.00,,,-99.99,VWS V12.07,2013-03-22 03:06:00,
2013-03-21 22:11:00,23.7,2.9,29.91,North,0,0.0,0.0,40,0.00,,,-99.99,VWS V12.07,2013-03-22 03:11:00,
2013-03-21 22:21:00,23.4,2.6,29.91,North,0,0.0,0.0,40,0.00,,,-99.99,VWS V12.07,2013-03-22 03:21:00,
2013-03-21 22:26:00,23.4,2.6,29.91,North,0,0.0,0.0,40,0.00,,,-99.99,VWS V12.07,2013-03-22 03:26:00,
2013-03-21 22:36:00,23.0,2.8,29.91,North,0,0.0,0.0,41,0.00,,,-99.99,VWS V12.07,2013-03-22 03:36:00,
2013-03-21 22:41:00,22.8,3.2,29.91,North,0,0.0,0.0,42,0.00,,,-99.99,VWS V12.07,2013-03-22 03:41:00,
2013-03-21 22:46:00,22.8,3.2,29.91,North,0,0.0,0.0,42,0.00,,,-99.99,VWS V12.07,2013-03-22 03:46:00,
2013-03-21 22:56:00,22.3,2.7,29.91,North,0,0.0,0.0,42,0.00,,,-99.99,VWS V12.07,2013-03-22 03:56:00,
2013-03-21 23:01:00,21.9,2.4,29.91,North,0,0.0,0.0,42,0.00,,,-99.99,VWS V12.07,2013-03-22 04:01:00,
2013-03-21 23:11:00,21.4,1.9,29.91,North,0,0.0,0.0,42,0.00,,,-99.99,VWS V12.07,2013-03-22 04:11:00,
2013-03-21 23:16:00,21.6,2.5,29.91,North,0,0.0,0.0,43,0.00,,,-99.99,VWS V12.07,2013-03-22 04:16:00,
2013-03-21 23:26:00,21.6,2.5,29.91,North,0,0.0,0.0,43,0.00,,,-99.99,VWS V12.07,2013-03-22 04:26:00,
2013-03-21 23:31:00,21.6,2.5,29.91,North,0,0.0,0.0,43,0.00,,,-99.99,VWS V12.07,2013-03-22 04:31:00,
2013-03-21 23:36:00,21.2,2.2,29.91,North,0,0.0,0.0,43,0.00,,,-99.99,VWS V12.07,2013-03-22 04:36:00,
2013-03-21 23:41:00,21.0,2.5,29.91,North,0,0.0,0.0,44,0.00,,,-99.99,VWS V12.07,2013-03-22 04:41:00,
2013-03-21 23:46:00,21.0,2.5,29.91,North,0,0.0,0.0,44,0.00,,,-99.99,VWS V12.07,2013-03-22 04:46:00,
2013-03-21 23:51:00,20.8,2.4,29.91,North,0,0.0,0.0,44,0.00,,,-99.99,VWS V12.07,2013-03-22 04:51:00,
2013-03-21 23:56:00,20.7,2.2,29.91,North,0,0.0,0.0,44,0.00,,,-99.99,VWS V12.07,2013-03-22 04:56:00,